Regional Weather Roundup
Issued by NWS

Home | Current Version | Previous Version | Text Only | Print | Product List | Glossary Off
Versions: 1 2 3 4 5 6 7 8 9 10 11 12 13 14 15 16 17 18 19 20 21 22 23 24 25 26 27

000
ASUS45 KTFX 272210
RWRMT
MONTANA REGIONAL WEATHER ROUNDUP
NATIONAL WEATHER SERVICE GREAT FALLS MT
400 PM MDT WED JUL 27 2016

NOTE: "FAIR" INDICATES FEW OR NO CLOUDS BELOW 12000 FEET WITH NO
SIGNIFICANT WEATHER AND/OR OBSTRUCTIONS TO VISIBILITY.

MTZ001>007-043-272300-
WEST OF THE DIVIDE

CITY           SKY/WX    TMP DP  RH WIND       PRES   REMARKS
KALISPELL      MOSUNNY   87  48  25 VRB7      30.07F
MISSOULA       MOSUNNY   88  43  20 S12       30.06F
BUTTE          MOSUNNY   86  39  19 N15       30.20F
MULLAN PASS    PTSUNNY   73  46  38 CALM      30.27F
ANACONDA         N/A     82  46  28 N5        30.17F
DEER LODGE       N/A     84  43  23 N6        30.18F
EUREKA           N/A     84  48  28 W3        30.07F
HAMILTON         N/A     86  46  25 CALM      30.08F
LIBBY            N/A     88  48  25 NW3       30.04F
RONAN            N/A     87  49  26 N8        30.13S
$$

MTZ008-052>055-272300-
SOUTHWEST MONTANA

CITY           SKY/WX    TMP DP  RH WIND       PRES   REMARKS
BOZEMAN        SUNNY     88  43  20 NE6       30.14F
DILLON         SUNNY     87  38  17 E7        30.15S
W YELLOWSTONE  MOSUNNY   82  32  16 NW6G16    30.27F
ENNIS          SUNNY     88  34  14 N16G23    30.21F
THREE FORKS      N/A     87  87 100 NE9       30.11F HX 116
TWIN BRIDGES     N/A     88  38  17 S3        30.12F
$$

MTZ009-010-012-014-046-048-049-054-272300-
EAST SLOPES AND CENTRAL MONTANA

CITY           SKY/WX    TMP DP  RH WIND       PRES   REMARKS
CUT BANK         N/A     80  51  36 NE8       30.18S
GREAT FALLS    MOSUNNY   84  46  26 E7        30.15F
MALMSTROM AFB  MOSUNNY   82  48  29 NE5       30.15S
HELENA         CLOUDY    87  47  24 NE9       30.12S
CHOTEAU          N/A     77  50  38 NE7       30.20S
$$

MTZ011-013-016-021-045-047-050-051-272300-
NORTH CENTRAL MONTANA

CITY           SKY/WX    TMP DP  RH WIND       PRES   REMARKS
HAVRE          CLOUDY    75  60  59 E10       30.15F
LEWISTOWN      MOSUNNY   80  52  37 VRB6      30.18F
N BAR RANCH    PTSUNNY   75  54  46 N9        30.21R
CHINOOK          N/A     70  63  78 E5        30.16S
$$

MTZ017>020-022>027-061-062-272300-
NORTHEAST MONTANA

CITY           SKY/WX    TMP DP  RH WIND       PRES   REMARKS
GLASGOW        PTSUNNY   75  60  59 E7        30.12S
JORDAN           N/A     78  60  53 E5        30.11F
SIDNEY         CLOUDY    70  61  73 N14       30.14F
WOLF POINT     MOSUNNY   76  61  59 E12       30.14S
PLENTYWOOD       N/A     72  54  53 CALM      30.16S
$$

MTZ028>42-056>058-272300-
SOUTHCENTRAL AND SOUTHEAST MONTANA

CITY           SKY/WX    TMP DP  RH WIND       PRES   REMARKS
BAKER          SUNNY     75  60  59 SE5       30.14F
BILLINGS       PTSUNNY   86  51  29 E10G18    30.10F
LIVINGSTON     MOSUNNY   89  39  17 SE6       30.13F
MILES CITY     PTSUNNY   83  59  44 NE8       30.08F
EKALAKA          N/A     78  55  44 SE5       30.12S
FORSYTH          N/A     82  59  44 CALM      30.08F
LAUREL           N/A     87  49  26 NE9       30.07F
ROUNDUP          N/A     79  61  53 CALM      30.04S
$$

REGIONAL REPORTS...DAKOTAS

CITY           SKY/WX    TMP DP  RH WIND       PRES   REMARKS
WILLISTON      CLOUDY    68  60  75 NE14      30.15S
MINOT          CLOUDY    76  57  51 E9        30.13R
DICKINSON      PTSUNNY   72  59  63 CALM      30.10F
BEACH            N/A     75  55  50 SE3       30.16F HAZE
CROSBY         PTSUNNY   68  61  77 E9        30.17S
WATFORD CITY     N/A    N/A N/A N/A MISG        N/A
BISMARCK       CLOUDY    78  60  53 E8        30.09F
GRAND FORKS    MOSUNNY   77  58  51 N15       30.04F
FARGO          SUNNY     78  58  49 N15       30.02F
BUFFALO SD       N/A     74  58  57 SE14      30.06F
RAPID CITY     MOSUNNY   80  61  52 NE16      30.13F
$$

REGIONAL REPORTS...WYOMING/IDAHO/WASHINGTON

CITY           SKY/WX    TMP DP  RH WIND       PRES   REMARKS
GILLETTE       PTSUNNY   84  52  33 E6        30.13F
SHERIDAN       MOSUNNY   87  50  27 VRB7      30.11F
BUFFALO WY     SUNNY     86  47  25 N10G20    30.18F
CODY           SUNNY     84  46  26 N8        30.17F
YELLOWSTONE LA   N/A     79  30  16 VRB7      30.38F
IDAHO FALLS    MOSUNNY   92  34  13 S12       30.13F
SALMON         SUNNY     90  46  22 S5        30.01F
BOISE          SUNNY     98  42  14 N8        29.97F HX  94
SPOKANE        PTSUNNY   89  47  23 S6        30.05F
$$

REGIONAL REPORTS...ALBERTA

CITY           SKY/WX    TMP DP  RH WIND       PRES   REMARKS
EDMONTON       LGT RAIN  66  59  77 SW6       30.15R
CALGARY        MOSUNNY   79  50  36 E10       30.18F
LETHBRIDGE     MOSUNNY   77  59  53 VRB2      30.15F
MEDICINE HAT   PTSUNNY   82  52  34 N3        30.14S
WATERTON GATE    N/A     63  54  72 N6          N/A
CARDSTON         N/A     75  52  43 N6          N/A
MILK RIVER       N/A     79  52  38 N5          N/A
$$

REGIONAL REPORTS...SASKATCHEWAN

CITY           SKY/WX    TMP DP  RH WIND       PRES   REMARKS
SWIFT CURRENT  MOSUNNY   75  50  41 NE12      30.17S
REGINA         PTSUNNY   73  55  53 SE7       30.16S
SASKATOON      MOSUNNY   81  52  36 W7        30.17F
CYPRESS HILLS    N/A     68  52  56 NE6         N/A
VAL MARIE        N/A     72  59  64 E9          N/A
ROCKGLEN         N/A     70  55  60 SE9         N/A
ASSINIBOIA       N/A     75  61  60 SW10        N/A
$$




USA.gov is the U.S. government's official web portal to all federal, state and local government web resources and services.